Location: A�t Lahcen
(32.8243°N, 5.4246°W)
Time: 01:48:48
(UTC+00:00)

Cosmos 1689 Rocket - Pass Details

Date: 27 January 2021
Orbit: 353 x 367 km, 97.5° (Epoch: 26 February)

Event Time Altitude Azimuth Distance (km) Brightness Sun altitude
Rises 05:57:35 0° 157° (SSE) 2,211 6.4 -17.4°
Reaches altitude 10° 05:59:34 10° 151° (SSE) 1,364 5.4 -17.0°
Maximum altitude 06:02:21 46° 76° (ENE) 510 3.1 -16.4°
Drops below altitude 10° 06:05:09 10° 2° (N) 1,366 4.7 -15.8°
Enters shadow 06:06:14 - 358° (N) 1,825 5.3 -15.6°
